Home   Weather   Boise   Past weeks

Flag for USA Past Weather in Boise, Idaho, USA — Yesterday and Last 2 Weeks

Now
36 °F

Clear.


Feels Like: 28 °F
Forecast: 29 / 35 °F
Wind: 13 mph from Southeast

Location: Boise Air Terminal

Current Time: Jan 22, 2017 at 3:22:32 am

Latest Report: Jan 22, 2017 at 2:53 am


Visibility: 10 mi

Pressure: 29.84 "Hg (26.95 "Hg at 822m altitude)

Humidity: 73%

Dew Point: 28 °F

Location of BoiseLocation

Past Weather in Boise — Graph

°F

Boise Temperature Yesterday

Maximum temperature yesterday: 40 °F (at 3:53 pm)
Minimum temperature yesterday: 32 °F (at 9:53 am)
Average temperature yesterday: 35 °F

High & Low Weather Summary for the Past Weeks

 TemperatureHumidityPressure
High43 °F (Jan 8, 8:53 pm)100% (Jan 8, 2:53 pm)30.70 "Hg (Jan 8, 2:53 pm)
Low-7 °F (Jan 7, 2:53 am)51% (Jan 20, 1:53 pm)29.25 "Hg (Jan 20, 5:53 pm)
Average23 °F83%30.07 "Hg
* Reported Jan 7 1:53 am — Jan 22 1:53 am, Boise, Weather by CustomWeather, © 2017

Note: Actual official high and low records may vary slightly from our data, if they occured in-between our weather recording intervals... More about our weather records

Advertising

Boise Weather History for the Previous 24 Hours

Scroll right to see more
 ConditionsComfort  
Time TempWeatherWind HumidityBarometerVisibility
1:53 am
Sun, Jan 22
35 °FPassing clouds.12 mph78%29.85 "Hg10 mi
12:53 am37 °FOvercast.12 mph76%29.85 "Hg10 mi
11:53 pm
Sat, Jan 21
37 °FPassing clouds.13 mph76%29.84 "Hg10 mi
10:53 pm37 °FPassing clouds.10 mph76%29.83 "Hg10 mi
9:53 pm37 °FPassing clouds.13 mph76%29.82 "Hg10 mi
8:53 pm36 °FPassing clouds.13 mph82%29.81 "Hg10 mi
7:53 pm36 °FMostly cloudy.13 mph82%29.81 "Hg10 mi
6:53 pm37 °FLight rain. Overcast.6 mph79%29.80 "Hg9 mi
5:53 pm36 °FMore clouds than sun.3 mph82%29.76 "Hg10 mi
4:53 pm38 °FOvercast.7 mph79%29.73 "Hg10 mi
3:53 pm40 °FOvercast.7 mph77%29.70 "Hg10 mi
2:53 pm39 °FMore clouds than sun.8 mph79%29.67 "Hg10 mi
1:53 pm37 °FOvercast.7 mph86%29.64 "Hg10 mi
12:53 pm36 °FPartly sunny.7 mph89%29.62 "Hg9 mi
11:53 am34 °FFog.7 mph92%29.60 "Hg5 mi
11:43 am34 °FLight rain. Fog.9 mph92%29.57 "Hg3 mi
11:30 am33 °FLight snow. Fog.6 mph96%29.57 "Hg2 mi
11:15 am33 °FLight snow. Fog.3 mph96%29.56 "Hg1 mi
10:53 am32 °FLight snow. Ice fog.6 mph96%29.58 "Hg1 mi
9:53 am32 °FSnow. Fog.7 mph92%29.54 "Hg1 mi
9:20 am33 °FLight snow. Fog.6 mph92%29.48 "Hg1 mi
8:53 am33 °FFog.No wind96%29.50 "Hg5 mi
7:53 am34 °FMostly cloudy.3 mph92%29.45 "Hg7 mi
6:53 am33 °FMostly cloudy.3 mph92%29.41 "Hg10 mi
5:53 am33 °FLight snow. Fog.10 mph96%29.38 "Hg6 mi
5:35 am33 °FLight snow. Fog.7 mph92%29.36 "Hg1 mi
5:20 am34 °FLight snow. Fog.No wind88%29.35 "Hg3 mi
4:53 am34 °FOvercast.No wind88%29.36 "Hg10 mi
3:53 am34 °FMostly cloudy.8 mph88%29.33 "Hg10 mi
Weather by CustomWeather, © 2017

See weather overviewHow to use our weather pages